CZ-6A DEB, 61499

Orbit data source: Space-Track

CZ-6A DEB, 61499 is space debris in LEO originally from a launch on Tue, 06 Aug 2024 UTC launched from the Taiyaun Space Center, China (TSC). Debris objects in space refer to the collection of defunct objects orbiting the Earth. Examples of debris include non-operational satellites, rocket bodies, and fragments generated from explosions, collisions, or faulty payload assembly.

Loading next visibility...
Identifier
61499, 2024-140ABH
Orbit
LEO
Country
Flag of CNCN / PRC
Related business
Manufacturer
SAST
Mission
Spacecraft
Bus & Motor
Unknown
Mass
Unknown
Launch date (UTC)
2024-08-06 (1 year ago)
Launch vehicle
Unknown
Launch site
Taiyaun Space Center, China (TSC)
Object type
Payload
Rocket body
Debris
Shape & HBR
Unknown shape, 0.1 m
Radar Cross Section
Small (<0.1 m²)

Expand to show TLE details & history
Last TLE update: 10 hours ago

TLE from 10 hours ago
0 CZ-6A DEB
1 61499U 24140ABH 25350.85382441  .00133041  00000-0  44337-2 0  9995
2 61499  88.9041 283.6645 0057794  42.4094 318.1601 15.28966500 68062
Epoch: 2025-12-16T20:29Z
TLE epoch observation values (Epoch: 2025-12-16T20:29:30.429Z)
Latitude
0.00006°
Longitude
-109.44436°
Altitude
452.679 km
Speed
7.657 km/s
True Right ascension
18h 54m 39s
True Declination
0° 00' 00"
Sunlit
Object was in daylight at epoch
Visualization orbit readout
Latitude
Unknown
Longitude
Unknown
Altitude
Unknown
Speed
Unknown
Apparent Right ascension
Unknown
Apparent Declination
Unknown
Sunlit
N/A
Visualization observer readout
Local Sidereal Time
05:35:08
Azimuth
Unknown
Elevation
Unknown
Doppler factor
Unknown
Orbital elements
Apogee altitude
515.309 km
Perigee altitude
436.087 km
Semi-major axis
6,853.835 km
Eccentricity
0.00578
Inclination
88.9041°
RAAN
283.6645°
Arg. of periapsis
42.4094°
True anomaly
317.71595°
Mean anomaly
318.1601°
Eccentric anomaly
317.93826°
Mean motion
3.8251 °/min
Orbital period
94.12 mins
BSTAR
0.0044337
Loading maneuver chart data...
Computing Atmospheric mass density...

Documentation

Showing up to 5 results
|